AXM1623 WBKK-RKSI

Flight info

Callsign AXM1623
Flight time 4h 37m
Altitude 35000
Route VETAG1F VETAG DCT OSANU M646 MIA/N0453F360 M646 SANRO/N0450F350 M646 POTIB Q14 TNN W4 DALIN/N0440F370 W4 ANLOT B1 APU A1 DRAKE Q11 WP900 L4 LIPLO Y741 ATOTI Y722 GUNKU DCT OLMEN DCT OLMEN OLMEN2E
Aircraft A320/M-SDE3FGHIRWY/LB1

Departure

Time 2026-04-25 13:23
Airport Kota Kinabalu International Airport (WBKK)

Arrival

Time 2026-04-25 18:01
Airport Incheon International Airport (RKSI)
Time Latitude Longitude Altitude Speed Heading
2026-04-25 13:00 5.92209 116.05003 29 ft 0 kts 68°
2026-04-25 13:14 5.92208 116.05002 29 ft 2 kts 68°
2026-04-25 13:14 5.92198 116.04978 29 ft 4 kts 64°
2026-04-25 13:14 5.92185 116.04954 29 ft 4 kts 56°
2026-04-25 13:15 5.92168 116.04934 29 ft 4 kts 29°
2026-04-25 13:15 5.92150 116.04930 29 ft 1 kts 338°
2026-04-25 13:15 5.92147 116.04931 29 ft 1 kts 338°
2026-04-25 13:18 5.92151 116.04929 29 ft 3 kts 338°
2026-04-25 13:18 5.92186 116.04915 29 ft 8 kts 339°
2026-04-25 13:18 5.92249 116.04890 29 ft 11 kts 338°
2026-04-25 13:18 5.92314 116.04865 29 ft 9 kts 338°
2026-04-25 13:19 5.92366 116.04844 29 ft 7 kts 338°
2026-04-25 13:19 5.92410 116.04800 29 ft 12 kts 289°
2026-04-25 13:19 5.92361 116.04727 29 ft 15 kts 203°
2026-04-25 13:19 5.92328 116.04713 29 ft 16 kts 202°
2026-04-25 13:20 5.92155 116.04640 29 ft 17 kts 202°
2026-04-25 13:20 5.92081 116.04609 29 ft 17 kts 202°
2026-04-25 13:20 5.91927 116.04546 29 ft 18 kts 202°
2026-04-25 13:20 5.91814 116.04498 29 ft 12 kts 203°
2026-04-25 13:21 5.91785 116.04442 29 ft 9 kts 284°
2026-04-25 13:21 5.91804 116.04393 29 ft 6 kts 292°
2026-04-25 13:21 5.91819 116.04357 29 ft 5 kts 292°
2026-04-25 13:21 5.91836 116.04329 29 ft 6 kts 321°
2026-04-25 13:22 5.91879 116.04337 29 ft 6 kts 24°
2026-04-25 13:22 5.91886 116.04340 29 ft 0 kts 23°
2026-04-25 13:22 5.91941 116.04364 29 ft 36 kts 23°
2026-04-25 13:23 5.93225 116.04907 29 ft 154 kts 22°
2026-04-25 13:23 5.94335 116.05378 149 ft 184 kts 23°
2026-04-25 13:23 5.95515 116.05881 766 ft 186 kts 24°
2026-04-25 13:23 5.96774 116.06388 1006 ft 205 kts 22°
2026-04-25 13:24 5.98182 116.06910 1204 ft 227 kts 21°
2026-04-25 13:24 5.99743 116.07479 1434 ft 250 kts 20°
2026-04-25 13:24 6.01416 116.08093 1985 ft 259 kts 21°
2026-04-25 13:24 6.03128 116.08717 2684 ft 263 kts 21°
2026-04-25 13:25 6.04841 116.09340 3389 ft 267 kts 21°
2026-04-25 13:25 6.06606 116.09974 4093 ft 271 kts 21°
2026-04-25 13:25 6.08343 116.10783 4784 ft 274 kts 36°
2026-04-25 13:25 6.09872 116.11899 5473 ft 277 kts 38°
2026-04-25 13:26 6.11432 116.13050 6177 ft 279 kts 38°
2026-04-25 13:26 6.13005 116.14213 6872 ft 281 kts 38°
2026-04-25 13:26 6.14589 116.15380 7569 ft 283 kts 38°
2026-04-25 13:26 6.16183 116.16550 8274 ft 285 kts 38°
2026-04-25 13:27 6.17787 116.17727 8974 ft 287 kts 38°
2026-04-25 13:27 6.19403 116.18912 9677 ft 288 kts 38°
2026-04-25 13:27 6.21028 116.20106 10250 ft 293 kts 38°
2026-04-25 13:27 6.22736 116.21366 10386 ft 315 kts 38°
2026-04-25 13:28 6.24560 116.22713 10542 ft 334 kts 38°
2026-04-25 13:28 6.25199 116.23184 10662 ft 338 kts 38°
2026-04-25 13:28 6.28392 116.25531 11500 ft 346 kts 38°
2026-04-25 13:28 6.30343 116.26962 12073 ft 348 kts 38°
2026-04-25 13:29 6.32310 116.28405 12622 ft 351 kts 38°
2026-04-25 13:29 6.34291 116.29860 13175 ft 354 kts 38°
2026-04-25 13:29 6.36285 116.31324 13698 ft 357 kts 38°
2026-04-25 13:30 6.40325 116.34296 14629 ft 362 kts 38°
2026-04-25 13:30 6.42365 116.35800 15092 ft 365 kts 38°
2026-04-25 13:30 6.44424 116.37316 15555 ft 368 kts 38°
2026-04-25 13:31 6.47873 116.39857 16296 ft 372 kts 38°
2026-04-25 13:31 6.50689 116.41932 16875 ft 376 kts 38°
2026-04-25 13:31 6.52807 116.43492 17310 ft 379 kts 37°
2026-04-25 13:31 6.54943 116.45065 17733 ft 382 kts 37°
2026-04-25 13:32 6.57094 116.46650 18156 ft 385 kts 38°
2026-04-25 13:32 6.58526 116.47705 18397 ft 387 kts 38°
2026-04-25 13:32 6.60706 116.49313 18754 ft 389 kts 38°
2026-04-25 13:32 6.62894 116.50927 19120 ft 391 kts 38°
2026-04-25 13:33 6.65095 116.52550 19486 ft 393 kts 38°
2026-04-25 13:33 6.67310 116.54181 19834 ft 395 kts 37°
2026-04-25 13:33 6.69532 116.55815 20192 ft 398 kts 37°
2026-04-25 13:33 6.71010 116.56903 20422 ft 399 kts 37°
2026-04-25 13:34 6.74024 116.59120 20890 ft 402 kts 37°
2026-04-25 13:34 6.76285 116.60786 21239 ft 404 kts 37°
2026-04-25 13:34 6.78552 116.62460 21582 ft 406 kts 38°
2026-04-25 13:34 6.80836 116.64148 21925 ft 408 kts 38°
2026-04-25 13:35 6.82356 116.65272 22141 ft 409 kts 38°
2026-04-25 13:35 6.85437 116.67548 22579 ft 412 kts 37°
2026-04-25 13:35 6.87759 116.69259 22886 ft 415 kts 37°
2026-04-25 13:35 6.90092 116.70979 23213 ft 417 kts 37°
2026-04-25 13:36 6.92439 116.72707 23512 ft 419 kts 37°
2026-04-25 13:36 6.94797 116.74445 23778 ft 421 kts 37°
2026-04-25 13:36 6.97165 116.76194 24024 ft 423 kts 37°
2026-04-25 13:36 6.99542 116.77953 24290 ft 425 kts 37°
2026-04-25 13:37 7.01934 116.79723 24554 ft 427 kts 37°
2026-04-25 13:37 7.04331 116.81493 24801 ft 429 kts 37°
2026-04-25 13:37 7.06744 116.83267 25073 ft 430 kts 37°
2026-04-25 13:37 7.09165 116.85051 25327 ft 432 kts 37°
2026-04-25 13:38 7.11590 116.86843 25577 ft 434 kts 37°
2026-04-25 13:38 7.14031 116.88648 25820 ft 436 kts 37°
2026-04-25 13:38 7.16483 116.90459 26061 ft 437 kts 37°
2026-04-25 13:38 7.18942 116.92275 26300 ft 439 kts 37°
2026-04-25 13:39 7.21411 116.94099 26542 ft 441 kts 37°
2026-04-25 13:39 7.23888 116.95933 26767 ft 443 kts 37°
2026-04-25 13:39 7.26344 116.97752 26999 ft 445 kts 37°
2026-04-25 13:39 7.28871 116.99624 27239 ft 446 kts 37°
2026-04-25 13:40 7.31348 117.01454 27465 ft 448 kts 37°
2026-04-25 13:40 7.33869 117.03316 27695 ft 450 kts 37°
2026-04-25 13:40 7.36397 117.05185 27927 ft 452 kts 37°
2026-04-25 13:40 7.38934 117.07063 28134 ft 454 kts 37°
2026-04-25 13:41 7.41481 117.08952 28367 ft 455 kts 38°
2026-04-25 13:41 7.44037 117.10848 28575 ft 457 kts 37°
2026-04-25 13:41 7.46604 117.12749 28779 ft 459 kts 37°
2026-04-25 13:41 7.49180 117.14656 29011 ft 460 kts 37°
2026-04-25 13:42 7.51770 117.16569 29222 ft 461 kts 37°
2026-04-25 13:42 7.54361 117.18481 29436 ft 463 kts 37°
2026-04-25 13:42 7.56967 117.20408 29625 ft 465 kts 38°
2026-04-25 13:42 7.59573 117.22342 29805 ft 466 kts 37°
2026-04-25 13:43 7.62192 117.24286 29991 ft 468 kts 37°
2026-04-25 13:43 7.64816 117.26233 30160 ft 470 kts 37°
2026-04-25 13:43 7.67453 117.28185 30390 ft 469 kts 37°
2026-04-25 13:43 7.70080 117.30126 30624 ft 469 kts 37°
2026-04-25 13:44 7.72724 117.32047 30864 ft 468 kts 37°
2026-04-25 13:44 7.75387 117.33947 31088 ft 468 kts 36°
2026-04-25 13:44 7.78055 117.35832 31321 ft 468 kts 36°
2026-04-25 13:44 7.80723 117.37718 31559 ft 468 kts 36°
2026-04-25 13:45 7.83384 117.39606 31791 ft 467 kts 36°
2026-04-25 13:45 7.86005 117.41477 32032 ft 467 kts 37°
2026-04-25 13:45 7.88655 117.43374 32262 ft 467 kts 37°
2026-04-25 13:45 7.91337 117.45296 32492 ft 467 kts 37°
2026-04-25 13:46 7.93981 117.47193 32742 ft 466 kts 36°
2026-04-25 13:46 7.96624 117.49087 32974 ft 466 kts 36°
2026-04-25 13:46 7.99265 117.50982 33221 ft 466 kts 37°
2026-04-25 13:46 8.01904 117.52872 33460 ft 465 kts 36°
2026-04-25 13:47 8.04546 117.54761 33700 ft 465 kts 36°
2026-04-25 13:47 8.07151 117.56624 33929 ft 465 kts 37°
2026-04-25 13:47 8.09783 117.58508 34141 ft 464 kts 36°
2026-04-25 13:47 8.12420 117.60398 34333 ft 464 kts 36°
2026-04-25 13:48 8.15053 117.62285 34521 ft 464 kts 37°
2026-04-25 13:48 8.17683 117.64171 34728 ft 464 kts 36°
2026-04-25 13:48 8.20313 117.66058 34874 ft 464 kts 36°
2026-04-25 13:49 8.25559 117.69823 34936 ft 461 kts 36°
2026-04-25 13:49 8.30789 117.73570 34938 ft 461 kts 36°
2026-04-25 13:50 8.36015 117.77317 34936 ft 461 kts 36°
2026-04-25 13:50 8.41244 117.81073 34938 ft 461 kts 36°
2026-04-25 13:51 8.46471 117.84830 34938 ft 461 kts 36°
2026-04-25 13:51 8.51698 117.88579 34945 ft 461 kts 36°
2026-04-25 13:52 8.56924 117.92331 34942 ft 461 kts 36°
2026-04-25 13:52 8.62149 117.96086 34939 ft 461 kts 36°
2026-04-25 13:53 8.67367 117.99841 34937 ft 461 kts 36°
2026-04-25 13:53 8.72589 118.03598 34940 ft 460 kts 36°
2026-04-25 13:54 8.77803 118.07355 34941 ft 460 kts 36°
2026-04-25 13:54 8.83022 118.11102 34933 ft 460 kts 36°
2026-04-25 13:55 8.88242 118.14856 34938 ft 460 kts 36°
2026-04-25 13:55 8.93455 118.18618 34934 ft 460 kts 36°
2026-04-25 13:56 8.98669 118.22378 34929 ft 460 kts 36°
2026-04-25 13:56 9.03878 118.26133 34934 ft 460 kts 36°
2026-04-25 13:57 9.09060 118.29861 34936 ft 460 kts 36°
2026-04-25 13:57 9.14262 118.33622 34939 ft 459 kts 36°
2026-04-25 13:58 9.19453 118.37399 34936 ft 459 kts 36°
2026-04-25 13:58 9.24643 118.41179 34933 ft 460 kts 36°
2026-04-25 13:59 9.29843 118.44955 34936 ft 460 kts 36°
2026-04-25 13:59 9.35054 118.48719 34937 ft 460 kts 36°
2026-04-25 14:00 9.39373 118.51854 34937 ft 460 kts 36°
2026-04-25 14:00 9.45445 118.56281 34933 ft 460 kts 36°
2026-04-25 14:01 9.50649 118.60065 34935 ft 460 kts 36°
2026-04-25 14:01 9.55854 118.63848 34937 ft 460 kts 36°
2026-04-25 14:02 9.61056 118.67635 34934 ft 460 kts 36°
2026-04-25 14:02 9.66262 118.71421 34927 ft 461 kts 36°
2026-04-25 14:03 9.71465 118.75212 34930 ft 461 kts 36°
2026-04-25 14:03 9.77010 118.78441 34945 ft 461 kts 24°
2026-04-25 14:04 9.82866 118.81105 34941 ft 461 kts 24°
2026-04-25 14:04 9.88725 118.83792 34933 ft 462 kts 24°
2026-04-25 14:05 9.94537 118.86466 34937 ft 462 kts 24°
2026-04-25 14:05 10.00384 118.89152 34933 ft 462 kts 24°
2026-04-25 14:06 10.06259 118.91851 34936 ft 462 kts 24°
2026-04-25 14:06 10.12122 118.94541 34940 ft 462 kts 24°
2026-04-25 14:07 10.17985 118.97226 34938 ft 462 kts 24°
2026-04-25 14:07 10.23848 118.99917 34935 ft 462 kts 24°
2026-04-25 14:08 10.29714 119.02615 34932 ft 463 kts 24°
2026-04-25 14:08 10.35580 119.05313 34937 ft 463 kts 24°
2026-04-25 14:09 10.41449 119.08017 34934 ft 463 kts 24°
2026-04-25 14:09 10.47326 119.10716 34940 ft 463 kts 24°
2026-04-25 14:10 10.53191 119.13415 34934 ft 463 kts 24°
2026-04-25 14:10 10.59061 119.16122 34940 ft 463 kts 24°
2026-04-25 14:11 10.64938 119.18831 34938 ft 463 kts 24°
2026-04-25 14:11 10.70802 119.21539 34939 ft 463 kts 24°
2026-04-25 14:12 10.76643 119.24232 34939 ft 463 kts 24°
2026-04-25 14:12 10.82517 119.26939 34935 ft 464 kts 24°
2026-04-25 14:13 10.88391 119.29650 34939 ft 464 kts 24°
2026-04-25 14:13 10.94266 119.32364 34939 ft 464 kts 24°
2026-04-25 14:14 11.00150 119.35077 34931 ft 464 kts 24°
2026-04-25 14:14 11.06033 119.37796 34928 ft 464 kts 24°
2026-04-25 14:15 11.10961 119.40076 34938 ft 465 kts 24°
2026-04-25 14:15 11.16816 119.42783 34940 ft 465 kts 24°
2026-04-25 14:16 11.23694 119.45970 34936 ft 465 kts 24°
2026-04-25 14:16 11.28588 119.48237 34942 ft 465 kts 24°
2026-04-25 14:17 11.34474 119.50965 34936 ft 465 kts 24°
2026-04-25 14:17 11.40371 119.53696 34941 ft 465 kts 24°
2026-04-25 14:18 11.46255 119.56425 34940 ft 465 kts 24°
2026-04-25 14:18 11.52163 119.59158 34937 ft 465 kts 24°
2026-04-25 14:19 11.58063 119.61894 34937 ft 466 kts 24°
2026-04-25 14:19 11.63930 119.64626 34935 ft 466 kts 24°
2026-04-25 14:20 11.69825 119.67363 34935 ft 466 kts 24°
2026-04-25 14:20 11.75719 119.70129 34934 ft 466 kts 24°
2026-04-25 14:21 11.81609 119.72940 34935 ft 467 kts 24°
2026-04-25 14:21 11.87497 119.75744 34944 ft 467 kts 24°
2026-04-25 14:22 11.93394 119.78538 34950 ft 467 kts 24°
2026-04-25 14:22 11.99287 119.81339 34944 ft 467 kts 24°
2026-04-25 14:23 12.05179 119.84144 34944 ft 467 kts 24°
2026-04-25 14:23 12.11033 119.86928 34948 ft 467 kts 24°
2026-04-25 14:24 12.16940 119.89730 34945 ft 467 kts 24°
2026-04-25 14:24 12.22837 119.92532 34948 ft 467 kts 24°
2026-04-25 14:25 12.28735 119.95350 34944 ft 467 kts 24°
2026-04-25 14:25 12.34596 119.98146 34942 ft 467 kts 24°
2026-04-25 14:26 12.40496 120.00961 34943 ft 468 kts 24°
2026-04-25 14:26 12.46397 120.03772 34945 ft 468 kts 24°
2026-04-25 14:27 12.52295 120.06588 34944 ft 468 kts 24°
2026-04-25 14:27 12.58196 120.09403 34946 ft 468 kts 24°
2026-04-25 14:28 12.64096 120.12222 34946 ft 468 kts 24°
2026-04-25 14:28 12.69999 120.15035 34940 ft 468 kts 24°
2026-04-25 14:29 12.75899 120.17857 34938 ft 468 kts 24°
2026-04-25 14:29 12.81810 120.20688 34944 ft 468 kts 24°
2026-04-25 14:30 12.86716 120.23032 34946 ft 468 kts 24°
2026-04-25 14:30 12.96704 120.27254 34945 ft 464 kts
2026-04-25 14:31 13.03132 120.27542 34941 ft 462 kts 359°
2026-04-25 14:31 13.09576 120.27675 34940 ft 463 kts 359°
2026-04-25 14:32 13.16017 120.27808 34940 ft 463 kts 359°
2026-04-25 14:32 13.22462 120.27951 34946 ft 463 kts 359°
2026-04-25 14:33 13.28902 120.28094 34946 ft 463 kts 359°
2026-04-25 14:33 13.35347 120.28232 34952 ft 463 kts 359°
2026-04-25 14:34 13.41788 120.28371 34955 ft 463 kts 359°
2026-04-25 14:34 13.48185 120.28515 34955 ft 463 kts 359°
2026-04-25 14:35 13.54621 120.28657 34960 ft 463 kts 359°
2026-04-25 14:35 13.61057 120.28795 34963 ft 462 kts 359°
2026-04-25 14:36 13.67488 120.28936 34965 ft 462 kts 359°
2026-04-25 14:36 13.73924 120.29083 34964 ft 462 kts 359°
2026-04-25 14:37 13.80350 120.29220 34966 ft 462 kts 359°
2026-04-25 14:37 13.86777 120.29370 34967 ft 462 kts 359°
2026-04-25 14:38 13.93205 120.29520 34970 ft 462 kts 359°
2026-04-25 14:38 13.99625 120.29668 34970 ft 461 kts 359°
2026-04-25 14:39 14.06050 120.29806 34969 ft 461 kts 359°
2026-04-25 14:39 14.12463 120.29948 34967 ft 461 kts 359°
2026-04-25 14:40 14.18882 120.30089 34972 ft 461 kts 359°
2026-04-25 14:40 14.25305 120.30234 34970 ft 461 kts 359°
2026-04-25 14:41 14.31681 120.30376 34972 ft 460 kts 359°
2026-04-25 14:41 14.38083 120.30509 34975 ft 460 kts 359°
2026-04-25 14:42 14.42361 120.30603 34977 ft 460 kts 359°
2026-04-25 14:42 14.50868 120.30794 34996 ft 459 kts 359°
2026-04-25 14:43 14.57256 120.30939 35008 ft 459 kts 359°
2026-04-25 14:43 14.63637 120.31082 35013 ft 458 kts 359°
2026-04-25 14:44 14.70015 120.31224 35013 ft 458 kts 359°
2026-04-25 14:44 14.76388 120.31369 35015 ft 458 kts 359°
2026-04-25 14:45 14.82760 120.31510 35014 ft 457 kts 359°
2026-04-25 14:45 14.89130 120.31654 35012 ft 457 kts 359°
2026-04-25 14:46 14.95487 120.31800 35011 ft 457 kts 359°
2026-04-25 14:46 15.01807 120.31944 35011 ft 457 kts 359°
2026-04-25 14:47 15.06055 120.32038 35010 ft 456 kts 359°
2026-04-25 14:47 15.14504 120.32224 35013 ft 456 kts 359°
2026-04-25 14:48 15.20843 120.32365 35015 ft 455 kts 359°
2026-04-25 14:48 15.27175 120.32510 35014 ft 455 kts 359°
2026-04-25 14:49 15.33509 120.32654 35016 ft 455 kts 359°
2026-04-25 14:49 15.39876 120.32804 35018 ft 454 kts 359°
2026-04-25 14:50 15.46153 120.32937 35017 ft 454 kts 358°
2026-04-25 14:50 15.52467 120.33068 35019 ft 454 kts 358°
2026-04-25 14:51 15.58786 120.33211 35014 ft 454 kts 358°
2026-04-25 14:51 15.65021 120.33355 35015 ft 454 kts 358°
2026-04-25 14:52 15.71341 120.33503 35007 ft 454 kts 358°
2026-04-25 14:52 15.75560 120.33601 35009 ft 453 kts 358°
2026-04-25 14:53 15.83959 120.33786 35002 ft 454 kts 358°
2026-04-25 14:53 15.90276 120.33930 34999 ft 454 kts 358°
2026-04-25 14:54 15.96591 120.34070 34995 ft 454 kts 358°
2026-04-25 14:54 16.02914 120.34210 34994 ft 454 kts 358°
2026-04-25 14:55 16.09195 120.34355 34996 ft 454 kts 358°
2026-04-25 14:55 16.15528 120.34508 34997 ft 455 kts 358°
2026-04-25 14:56 16.21857 120.34652 35000 ft 455 kts 358°
2026-04-25 14:56 16.28186 120.34788 35003 ft 455 kts 358°
2026-04-25 14:57 16.34532 120.34930 35006 ft 455 kts 358°
2026-04-25 14:57 16.40830 120.35077 35009 ft 455 kts 358°
2026-04-25 14:58 16.47178 120.35223 35008 ft 455 kts 358°
2026-04-25 14:58 16.52442 120.35342 35009 ft 455 kts 358°
2026-04-25 14:59 16.58774 120.35480 35009 ft 455 kts 358°
2026-04-25 14:59 16.66130 120.35649 35005 ft 455 kts 357°
2026-04-25 15:00 16.71433 120.35770 35005 ft 455 kts 357°
2026-04-25 15:00 16.77723 120.36380 35002 ft 457 kts
2026-04-25 15:01 16.84049 120.37129 34999 ft 457 kts
2026-04-25 15:01 16.90377 120.37866 34994 ft 457 kts
2026-04-25 15:02 16.96696 120.38599 34995 ft 457 kts
2026-04-25 15:02 17.03026 120.39339 34990 ft 457 kts
2026-04-25 15:03 17.09349 120.40082 34991 ft 458 kts
2026-04-25 15:03 17.15682 120.40831 34995 ft 458 kts
2026-04-25 15:04 17.22012 120.41577 34994 ft 458 kts
2026-04-25 15:04 17.28341 120.42325 34993 ft 458 kts
2026-04-25 15:05 17.34675 120.43066 34989 ft 458 kts
2026-04-25 15:06 17.44133 120.44180 34985 ft 458 kts
2026-04-25 15:06 17.50464 120.44930 34988 ft 458 kts
2026-04-25 15:07 17.56796 120.45675 34987 ft 458 kts
2026-04-25 15:07 17.63129 120.46417 34986 ft 458 kts
2026-04-25 15:08 17.69462 120.47162 34987 ft 458 kts
2026-04-25 15:08 17.75794 120.47913 34983 ft 458 kts
2026-04-25 15:09 17.82137 120.48663 34979 ft 458 kts
2026-04-25 15:09 17.91599 120.49783 34981 ft 458 kts
2026-04-25 15:10 17.97958 120.50538 34977 ft 459 kts
2026-04-25 15:11 18.07481 120.51672 34979 ft 459 kts
2026-04-25 15:11 18.13837 120.52428 34977 ft 460 kts
2026-04-25 15:12 18.23379 120.53444 34974 ft 459 kts 359°
2026-04-25 15:12 18.28671 120.53832 34970 ft 458 kts 358°
2026-04-25 15:13 18.39283 120.54603 34975 ft 460 kts 358°
2026-04-25 15:14 18.45669 120.55119 34969 ft 460 kts 358°
2026-04-25 15:14 18.52060 120.55637 34966 ft 461 kts 358°
2026-04-25 15:15 18.58458 120.56153 34970 ft 461 kts 358°
2026-04-25 15:15 18.64869 120.56665 34968 ft 462 kts 358°
2026-04-25 15:16 18.71279 120.57177 34967 ft 462 kts 358°
2026-04-25 15:16 18.80876 120.57952 34968 ft 463 kts 358°
2026-04-25 15:17 18.90525 120.58729 34970 ft 464 kts 358°
2026-04-25 15:18 18.96966 120.59251 34971 ft 464 kts 358°
2026-04-25 15:18 19.06654 120.60034 34979 ft 465 kts 358°
2026-04-25 15:19 19.12028 120.60463 34981 ft 465 kts 358°
2026-04-25 15:19 19.19536 120.61068 34978 ft 466 kts 357°
2026-04-25 15:20 19.26005 120.61591 34981 ft 466 kts 357°
2026-04-25 15:20 19.32484 120.62119 34981 ft 466 kts 357°
2026-04-25 15:21 19.38966 120.62648 34984 ft 467 kts 357°
2026-04-25 15:21 19.45450 120.63177 34986 ft 467 kts 357°
2026-04-25 15:22 19.51933 120.63707 34991 ft 468 kts 357°
2026-04-25 15:22 19.58425 120.64231 34995 ft 468 kts 357°
2026-04-25 15:23 19.64882 120.64747 34992 ft 468 kts 356°
2026-04-25 15:23 19.71390 120.65281 34993 ft 469 kts 357°
2026-04-25 15:24 19.77899 120.65818 34987 ft 469 kts 357°
2026-04-25 15:24 19.83310 120.66262 34993 ft 469 kts 357°
2026-04-25 15:25 19.90932 120.66888 34995 ft 469 kts 356°
2026-04-25 15:25 19.97450 120.67416 35001 ft 469 kts 356°
2026-04-25 15:26 20.03968 120.67939 35001 ft 469 kts 356°
2026-04-25 15:26 20.10481 120.68466 35008 ft 470 kts 356°
2026-04-25 15:27 20.17002 120.69001 35009 ft 470 kts 356°
2026-04-25 15:28 20.26789 120.69803 35010 ft 470 kts 356°
2026-04-25 15:28 20.33275 120.70337 35005 ft 470 kts 356°
2026-04-25 15:29 20.39799 120.70879 35011 ft 470 kts 356°
2026-04-25 15:29 20.46338 120.71414 35014 ft 470 kts 356°
2026-04-25 15:30 20.50705 120.71766 35014 ft 470 kts 356°
2026-04-25 15:30 20.59387 120.72482 35019 ft 470 kts 356°
2026-04-25 15:31 20.65909 120.73019 35023 ft 470 kts 356°
2026-04-25 15:31 20.72432 120.73553 35025 ft 469 kts 356°
2026-04-25 15:32 20.78949 120.74093 35025 ft 469 kts 356°
2026-04-25 15:32 20.85451 120.74628 35032 ft 469 kts 356°
2026-04-25 15:33 20.95153 120.75437 35028 ft 468 kts 355°
2026-04-25 15:33 21.01543 120.75366 35051 ft 445 kts 336°
2026-04-25 15:34 21.07540 120.73893 35016 ft 442 kts 337°
2026-04-25 15:34 21.11549 120.72887 35013 ft 442 kts 337°
2026-04-25 15:35 21.22520 120.70092 35015 ft 442 kts 337°
2026-04-25 15:36 21.31493 120.67800 35025 ft 442 kts 336°
2026-04-25 15:36 21.37473 120.66276 35027 ft 442 kts 336°
2026-04-25 15:37 21.43452 120.64750 35029 ft 441 kts 336°
2026-04-25 15:37 21.49428 120.63218 35032 ft 441 kts 336°
2026-04-25 15:38 21.55401 120.61677 35035 ft 441 kts 336°
2026-04-25 15:38 21.61366 120.60135 35033 ft 441 kts 336°
2026-04-25 15:39 21.67336 120.58601 35036 ft 441 kts 336°
2026-04-25 15:39 21.73317 120.57066 35032 ft 442 kts 336°
2026-04-25 15:40 21.77281 120.56049 35032 ft 442 kts 336°
2026-04-25 15:40 21.85242 120.53991 35034 ft 442 kts 336°
2026-04-25 15:41 21.91223 120.52441 35034 ft 442 kts 336°
2026-04-25 15:41 21.97208 120.50902 35028 ft 442 kts 336°
2026-04-25 15:42 22.02192 120.49624 35038 ft 442 kts 336°
2026-04-25 15:42 22.08185 120.48076 35039 ft 442 kts 336°
2026-04-25 15:43 22.14169 120.46526 35041 ft 443 kts 336°
2026-04-25 15:43 22.20167 120.44976 35041 ft 443 kts 336°
2026-04-25 15:44 22.26155 120.43423 35040 ft 443 kts 336°
2026-04-25 15:44 22.32147 120.41867 35036 ft 443 kts 336°
2026-04-25 15:45 22.38142 120.40312 35038 ft 443 kts 336°
2026-04-25 15:45 22.43125 120.39015 35039 ft 443 kts 336°
2026-04-25 15:46 22.50099 120.37197 35043 ft 443 kts 336°
2026-04-25 15:46 22.56085 120.35641 35039 ft 443 kts 336°
2026-04-25 15:47 22.62069 120.34093 35044 ft 442 kts 336°
2026-04-25 15:47 22.68063 120.32532 35038 ft 442 kts 336°
2026-04-25 15:48 22.74043 120.30970 35035 ft 442 kts 336°
2026-04-25 15:48 22.80020 120.29401 35071 ft 441 kts 336°
2026-04-25 15:49 22.85989 120.27838 35073 ft 441 kts 336°
2026-04-25 15:49 22.91962 120.26279 35071 ft 441 kts 336°
2026-04-25 15:50 22.97933 120.24716 35069 ft 442 kts 336°
2026-04-25 15:50 23.03913 120.23149 35071 ft 442 kts 336°
2026-04-25 15:51 23.08881 120.21846 35068 ft 443 kts 337°
2026-04-25 15:51 23.13055 120.21358 35062 ft 462 kts 352°
2026-04-25 15:51 23.16290 120.21738 35057 ft 476 kts
2026-04-25 15:52 23.22699 120.23939 35055 ft 485 kts 10°
2026-04-25 15:52 23.29104 120.26281 35052 ft 486 kts 10°
2026-04-25 15:53 23.35518 120.28597 35060 ft 486 kts 10°
2026-04-25 15:53 23.41891 120.30895 35069 ft 486 kts 10°
2026-04-25 15:54 23.48299 120.33229 35074 ft 486 kts 11°
2026-04-25 15:54 23.54703 120.35565 35073 ft 485 kts 11°
2026-04-25 15:55 23.61117 120.37908 35081 ft 485 kts 11°
2026-04-25 15:55 23.67520 120.40239 35084 ft 485 kts 11°
2026-04-25 15:56 23.73918 120.42568 35086 ft 484 kts 11°
2026-04-25 15:56 23.80308 120.44893 35086 ft 484 kts 11°
2026-04-25 15:57 23.86688 120.47223 35085 ft 483 kts 11°
2026-04-25 15:57 23.92834 120.50397 35083 ft 498 kts 28°
2026-04-25 15:58 23.98436 120.54907 35074 ft 500 kts 31°
2026-04-25 15:58 24.04031 120.59427 35075 ft 500 kts 31°
2026-04-25 15:59 24.09634 120.63948 35070 ft 500 kts 31°
2026-04-25 15:59 24.15239 120.68476 35077 ft 500 kts 31°
2026-04-25 16:00 24.18946 120.71478 35082 ft 500 kts 31°
2026-04-25 16:00 24.26431 120.77546 35083 ft 500 kts 31°
2026-04-25 16:01 24.32026 120.82084 35083 ft 500 kts 31°
2026-04-25 16:01 24.37620 120.86621 35083 ft 500 kts 31°
2026-04-25 16:02 24.43169 120.91131 35090 ft 500 kts 31°
2026-04-25 16:02 24.48762 120.95680 35097 ft 501 kts 31°
2026-04-25 16:03 24.54358 121.00240 35095 ft 501 kts 31°
2026-04-25 16:03 24.59952 121.04806 35089 ft 501 kts 31°
2026-04-25 16:04 24.65545 121.09383 35088 ft 501 kts 31°
2026-04-25 16:04 24.71142 121.13963 35080 ft 501 kts 31°
2026-04-25 16:05 24.76740 121.18537 35070 ft 502 kts 31°
2026-04-25 16:06 24.85165 121.25441 35055 ft 503 kts 31°
2026-04-25 16:06 24.90722 121.30003 35050 ft 503 kts 31°
2026-04-25 16:07 24.96387 121.34667 35054 ft 504 kts 31°
2026-04-25 16:07 25.02006 121.39290 35058 ft 504 kts 31°
2026-04-25 16:08 25.07629 121.43919 35060 ft 504 kts 31°
2026-04-25 16:08 25.13218 121.48522 35059 ft 505 kts 31°
2026-04-25 16:09 25.18654 121.53466 35050 ft 512 kts 43°
2026-04-25 16:09 25.23355 121.59398 35044 ft 514 kts 46°
2026-04-25 16:10 25.28069 121.65339 35047 ft 514 kts 45°
2026-04-25 16:10 25.32796 121.71275 35048 ft 515 kts 45°
2026-04-25 16:11 25.37514 121.77239 35046 ft 515 kts 45°
2026-04-25 16:11 25.42228 121.83216 35043 ft 516 kts 46°
2026-04-25 16:12 25.46945 121.89197 35045 ft 516 kts 46°
2026-04-25 16:12 25.51660 121.95184 35041 ft 516 kts 46°
2026-04-25 16:13 25.56379 122.01184 35047 ft 516 kts 46°
2026-04-25 16:13 25.61176 122.07111 35041 ft 514 kts 39°
2026-04-25 16:14 25.66792 122.11886 35051 ft 508 kts 30°
2026-04-25 16:14 25.72553 122.16350 35045 ft 508 kts 30°
2026-04-25 16:15 25.78348 122.20856 35055 ft 509 kts 30°
2026-04-25 16:15 25.84151 122.25379 35049 ft 509 kts 30°
2026-04-25 16:16 25.89947 122.29906 35050 ft 510 kts 30°
2026-04-25 16:16 25.95754 122.34446 35048 ft 510 kts 30°
2026-04-25 16:17 26.01580 122.39004 35052 ft 511 kts 30°
2026-04-25 16:17 26.07391 122.43559 35049 ft 511 kts 30°
2026-04-25 16:18 26.13201 122.48113 35049 ft 511 kts 30°
2026-04-25 16:18 26.19021 122.52679 35044 ft 512 kts 30°
2026-04-25 16:19 26.24836 122.57258 35046 ft 512 kts 30°
2026-04-25 16:19 26.30609 122.61826 35045 ft 513 kts 30°
2026-04-25 16:20 26.39344 122.68726 35047 ft 513 kts 30°
2026-04-25 16:21 26.48105 122.75650 35049 ft 514 kts 30°
2026-04-25 16:21 26.53945 122.80277 35046 ft 515 kts 30°
2026-04-25 16:22 26.59788 122.84918 35050 ft 516 kts 30°
2026-04-25 16:22 26.65648 122.89553 35054 ft 516 kts 30°
2026-04-25 16:23 26.71515 122.94191 35059 ft 517 kts 30°
2026-04-25 16:23 26.77380 122.98846 35061 ft 517 kts 30°
2026-04-25 16:24 26.83250 123.03524 35062 ft 518 kts 30°
2026-04-25 16:24 26.89116 123.08220 35061 ft 519 kts 30°
2026-04-25 16:25 26.94989 123.12922 35068 ft 519 kts 30°
2026-04-25 16:25 26.99873 123.16829 35069 ft 519 kts 30°
2026-04-25 16:26 27.06746 123.22338 35072 ft 520 kts 30°
2026-04-25 16:26 27.11639 123.26262 35075 ft 520 kts 30°
2026-04-25 16:27 27.17526 123.30982 35074 ft 520 kts 30°
2026-04-25 16:27 27.23420 123.35725 35068 ft 521 kts 30°
2026-04-25 16:28 27.29304 123.40480 35072 ft 521 kts 30°
2026-04-25 16:28 27.35196 123.45242 35068 ft 522 kts 30°
2026-04-25 16:29 27.41093 123.50004 35072 ft 522 kts 30°
2026-04-25 16:29 27.46997 123.54770 35074 ft 522 kts 30°
2026-04-25 16:30 27.52901 123.59550 35077 ft 523 kts 30°
2026-04-25 16:30 27.58812 123.64350 35078 ft 523 kts 30°
2026-04-25 16:31 27.64687 123.69198 35079 ft 524 kts 32°
2026-04-25 16:31 27.70443 123.74282 35073 ft 526 kts 34°
2026-04-25 16:32 27.76147 123.79471 35078 ft 526 kts 34°
2026-04-25 16:32 27.81834 123.84585 35080 ft 526 kts 33°
2026-04-25 16:33 27.87597 123.89684 35082 ft 526 kts 33°
2026-04-25 16:33 27.93357 123.94785 35078 ft 526 kts 33°
2026-04-25 16:34 27.99114 123.99907 35079 ft 527 kts 33°
2026-04-25 16:34 28.04905 124.05080 35079 ft 527 kts 33°
2026-04-25 16:35 28.10618 124.10192 35082 ft 527 kts 33°
2026-04-25 16:35 28.16372 124.15346 35086 ft 527 kts 33°
2026-04-25 16:36 28.22123 124.20509 35084 ft 527 kts 33°
2026-04-25 16:36 28.27875 124.25671 35084 ft 527 kts 33°
2026-04-25 16:37 28.33630 124.30838 35081 ft 527 kts 33°
2026-04-25 16:37 28.39370 124.36011 35077 ft 527 kts 33°
2026-04-25 16:38 28.45115 124.41189 35077 ft 527 kts 33°
2026-04-25 16:38 28.50863 124.46364 35072 ft 527 kts 33°
2026-04-25 16:39 28.56619 124.51561 35074 ft 528 kts 34°
2026-04-25 16:39 28.62355 124.56764 35071 ft 528 kts 34°
2026-04-25 16:40 28.68095 124.61986 35071 ft 528 kts 34°
2026-04-25 16:40 28.73849 124.67217 35073 ft 528 kts 33°
2026-04-25 16:41 28.80078 124.71401 35071 ft 513 kts 14°
2026-04-25 16:41 28.90117 124.75405 35072 ft 510 kts 11°
2026-04-25 16:42 28.96818 124.78091 35074 ft 511 kts 11°
2026-04-25 16:42 29.03534 124.80784 35075 ft 512 kts 11°
2026-04-25 16:43 29.10258 124.83475 35072 ft 512 kts 11°
2026-04-25 16:43 29.16990 124.86160 35066 ft 512 kts 11°
2026-04-25 16:44 29.23722 124.88857 35072 ft 512 kts 11°
2026-04-25 16:44 29.30425 124.91545 35066 ft 513 kts 11°
2026-04-25 16:45 29.37166 124.94251 35069 ft 514 kts 11°
2026-04-25 16:45 29.43922 124.96973 35064 ft 515 kts 11°
2026-04-25 16:46 29.50688 124.99702 35062 ft 516 kts 11°
2026-04-25 16:46 29.55222 125.01524 35058 ft 516 kts 11°
2026-04-25 16:47 29.64262 125.05156 35060 ft 518 kts 11°
2026-04-25 16:47 29.71068 125.07919 35062 ft 519 kts 11°
2026-04-25 16:48 29.77888 125.10691 35064 ft 520 kts 11°
2026-04-25 16:48 29.84720 125.13463 35058 ft 521 kts 11°
2026-04-25 16:49 29.91577 125.16241 35060 ft 523 kts 11°
2026-04-25 16:49 29.98445 125.19038 35059 ft 524 kts 11°
2026-04-25 16:50 30.05336 125.21854 35064 ft 526 kts 11°
2026-04-25 16:50 30.12189 125.24658 35062 ft 527 kts 11°
2026-04-25 16:51 30.19110 125.27488 35067 ft 528 kts 11°
2026-04-25 16:51 30.23748 125.29390 35070 ft 529 kts 11°
2026-04-25 16:52 30.32991 125.33199 35079 ft 530 kts 10°
2026-04-25 16:52 30.39942 125.36066 35076 ft 530 kts 10°
2026-04-25 16:53 30.50377 125.40354 35077 ft 531 kts
2026-04-25 16:54 30.57343 125.43224 35079 ft 531 kts
2026-04-25 16:54 30.64304 125.46114 35078 ft 531 kts
2026-04-25 16:55 30.71263 125.49010 35085 ft 531 kts
2026-04-25 16:55 30.78223 125.51905 35087 ft 530 kts
2026-04-25 16:56 30.85175 125.54785 35091 ft 530 kts
2026-04-25 16:56 30.92118 125.57662 35084 ft 530 kts
2026-04-25 16:57 30.99055 125.60550 35081 ft 529 kts
2026-04-25 16:57 31.05984 125.63456 35078 ft 529 kts
2026-04-25 16:58 31.12909 125.66358 35086 ft 528 kts
2026-04-25 16:58 31.19820 125.69250 35091 ft 528 kts
2026-04-25 16:59 31.26728 125.72152 35097 ft 527 kts
2026-04-25 16:59 31.33629 125.75052 35089 ft 526 kts
2026-04-25 17:00 31.40462 125.77926 35089 ft 525 kts
2026-04-25 17:00 31.47330 125.80809 35087 ft 524 kts
2026-04-25 17:01 31.54188 125.83703 35090 ft 523 kts 10°
2026-04-25 17:01 31.61031 125.86612 35085 ft 522 kts 10°
2026-04-25 17:02 31.67853 125.89488 35088 ft 521 kts 10°
2026-04-25 17:02 31.74692 125.92359 35059 ft 519 kts
2026-04-25 17:03 31.81486 125.95217 35057 ft 517 kts 10°
2026-04-25 17:03 31.88258 125.98072 35056 ft 516 kts 10°
2026-04-25 17:04 31.94999 126.00926 35059 ft 514 kts 10°
2026-04-25 17:04 32.01722 126.03773 35059 ft 513 kts 11°
2026-04-25 17:05 32.08383 126.06599 35066 ft 512 kts 11°
2026-04-25 17:05 32.18440 126.10861 35079 ft 511 kts 11°
2026-04-25 17:06 32.25129 126.13702 35079 ft 510 kts 11°
2026-04-25 17:06 32.31804 126.16542 35083 ft 509 kts 11°
2026-04-25 17:07 32.38462 126.19373 35083 ft 508 kts 11°
2026-04-25 17:07 32.45102 126.22204 35083 ft 507 kts 11°
2026-04-25 17:08 32.50617 126.24561 35080 ft 506 kts 11°
2026-04-25 17:08 32.57240 126.27396 35082 ft 505 kts 11°
2026-04-25 17:09 32.63844 126.30232 35080 ft 505 kts 11°
2026-04-25 17:09 32.70445 126.33073 35084 ft 504 kts 11°
2026-04-25 17:10 32.77035 126.35906 35081 ft 503 kts 11°
2026-04-25 17:10 32.83610 126.38746 35086 ft 502 kts 12°
2026-04-25 17:11 32.90178 126.41581 35081 ft 502 kts 11°
2026-04-25 17:11 32.96736 126.44412 35079 ft 501 kts 12°
2026-04-25 17:12 33.03285 126.47245 35080 ft 500 kts 12°
2026-04-25 17:12 33.09829 126.50060 35085 ft 500 kts 11°
2026-04-25 17:13 33.15262 126.52392 35090 ft 499 kts 11°
2026-04-25 17:13 33.22890 126.55674 35095 ft 498 kts 12°
2026-04-25 17:14 33.29399 126.58489 35088 ft 497 kts 12°
2026-04-25 17:14 33.35905 126.61300 35089 ft 496 kts 12°
2026-04-25 17:15 33.42351 126.64093 35086 ft 496 kts 12°
2026-04-25 17:15 33.48828 126.66923 35091 ft 495 kts 12°
2026-04-25 17:16 33.55325 126.69534 35089 ft 485 kts
2026-04-25 17:16 33.58619 126.70161 35091 ft 474 kts 355°
2026-04-25 17:16 33.61903 126.70500 35093 ft 473 kts 355°
2026-04-25 17:17 33.68454 126.71173 35087 ft 472 kts 355°
2026-04-25 17:17 33.74999 126.71858 35090 ft 472 kts 355°
2026-04-25 17:18 33.81537 126.72553 35097 ft 471 kts 355°
2026-04-25 17:18 33.88068 126.73250 35095 ft 470 kts 355°
2026-04-25 17:19 33.94588 126.73940 35090 ft 470 kts 355°
2026-04-25 17:19 34.01097 126.74616 35098 ft 469 kts 355°
2026-04-25 17:20 34.07597 126.75286 35102 ft 468 kts 356°
2026-04-25 17:20 34.14090 126.75969 35100 ft 468 kts 356°
2026-04-25 17:21 34.20568 126.76658 35101 ft 467 kts 356°
2026-04-25 17:21 34.27032 126.77333 35104 ft 466 kts 356°
2026-04-25 17:22 34.32390 126.77897 35105 ft 465 kts 356°
2026-04-25 17:22 34.39917 126.78701 35107 ft 464 kts 356°
2026-04-25 17:23 34.46339 126.79389 35105 ft 463 kts 356°
2026-04-25 17:23 34.52745 126.80065 35109 ft 462 kts 356°
2026-04-25 17:24 34.59144 126.80747 35112 ft 461 kts 356°
2026-04-25 17:24 34.65481 126.81434 35113 ft 459 kts 356°
2026-04-25 17:25 34.71841 126.82118 35113 ft 458 kts 356°
2026-04-25 17:25 34.78206 126.82791 35081 ft 460 kts
2026-04-25 17:26 34.84549 126.83472 35063 ft 457 kts
2026-04-25 17:26 34.90882 126.84155 35060 ft 458 kts
2026-04-25 17:27 34.97233 126.84842 35062 ft 458 kts
2026-04-25 17:27 35.01474 126.85302 35072 ft 458 kts
2026-04-25 17:28 35.09932 126.86218 35084 ft 458 kts
2026-04-25 17:28 35.16285 126.86912 35096 ft 458 kts
2026-04-25 17:29 35.22624 126.87605 35096 ft 457 kts
2026-04-25 17:29 35.28949 126.88287 35092 ft 456 kts
2026-04-25 17:30 35.35273 126.88971 35088 ft 455 kts
2026-04-25 17:30 35.41582 126.89657 35094 ft 455 kts
2026-04-25 17:31 35.47894 126.90351 35094 ft 455 kts
2026-04-25 17:31 35.54200 126.91046 35093 ft 455 kts
2026-04-25 17:32 35.60492 126.91720 35097 ft 454 kts
2026-04-25 17:32 35.66794 126.92406 35095 ft 454 kts
2026-04-25 17:33 35.73085 126.93108 35097 ft 454 kts
2026-04-25 17:33 35.79376 126.93806 35099 ft 453 kts
2026-04-25 17:34 35.85659 126.94497 35097 ft 453 kts
2026-04-25 17:34 35.91896 126.95178 35094 ft 452 kts
2026-04-25 17:35 35.98202 126.95878 35096 ft 452 kts
2026-04-25 17:35 36.04413 126.96559 35092 ft 451 kts
2026-04-25 17:36 36.10661 126.97254 35085 ft 450 kts
2026-04-25 17:36 36.16898 126.97948 35082 ft 449 kts
2026-04-25 17:37 36.23119 126.98640 35080 ft 449 kts
2026-04-25 17:37 36.29336 126.99327 35078 ft 448 kts
2026-04-25 17:38 36.33492 126.99793 35076 ft 447 kts
2026-04-25 17:38 36.41729 127.00270 35072 ft 443 kts 354°
2026-04-25 17:39 36.47883 127.00028 35017 ft 443 kts 354°
2026-04-25 17:39 36.50963 126.99915 34481 ft 442 kts 355°
2026-04-25 17:39 36.54034 126.99805 33927 ft 441 kts 355°
2026-04-25 17:40 36.57088 126.99696 33362 ft 437 kts 355°
2026-04-25 17:40 36.60119 126.99590 32846 ft 433 kts 355°
2026-04-25 17:40 36.63117 126.99482 32317 ft 429 kts 355°
2026-04-25 17:40 36.66089 126.99371 31816 ft 426 kts 355°
2026-04-25 17:41 36.69042 126.99269 31316 ft 422 kts 356°
2026-04-25 17:41 36.71963 126.99108 30821 ft 417 kts 351°
2026-04-25 17:41 36.74754 126.98419 30420 ft 401 kts 341°
2026-04-25 17:41 36.77318 126.97222 29785 ft 388 kts 335°
2026-04-25 17:42 36.79787 126.95914 28963 ft 382 kts 335°
2026-04-25 17:42 36.82215 126.94629 28143 ft 377 kts 335°
2026-04-25 17:42 36.84617 126.93357 27334 ft 373 kts 335°
2026-04-25 17:42 36.86963 126.92118 26553 ft 369 kts 335°
2026-04-25 17:43 36.89385 126.91082 25813 ft 370 kts 347°
2026-04-25 17:43 36.91944 126.90817 25373 ft 370 kts
2026-04-25 17:43 36.94508 126.91335 24937 ft 370 kts 16°
2026-04-25 17:43 36.96859 126.92619 24490 ft 370 kts 31°
2026-04-25 17:44 36.98859 126.94559 24067 ft 368 kts 43°
2026-04-25 17:44 37.00752 126.96779 23622 ft 367 kts 43°
2026-04-25 17:44 37.02589 126.98925 23149 ft 365 kts 43°
2026-04-25 17:44 37.04443 127.01076 22718 ft 363 kts 40°
2026-04-25 17:45 37.06535 127.02784 22300 ft 358 kts 22°
2026-04-25 17:45 37.07320 127.03168 22157 ft 356 kts 16°
2026-04-25 17:45 37.11339 127.03565 21479 ft 347 kts 348°
2026-04-25 17:45 37.13616 127.02661 21065 ft 342 kts 332°
2026-04-25 17:46 37.15609 127.01077 20642 ft 339 kts 323°
2026-04-25 17:46 37.17539 126.99378 20214 ft 338 kts 323°
2026-04-25 17:46 37.19459 126.97695 19834 ft 336 kts 323°
2026-04-25 17:46 37.21358 126.96030 19302 ft 330 kts 323°
2026-04-25 17:47 37.23183 126.94428 19163 ft 311 kts 323°
2026-04-25 17:47 37.24941 126.92881 18680 ft 306 kts 323°
2026-04-25 17:47 37.26675 126.91356 18144 ft 303 kts 322°
2026-04-25 17:47 37.28235 126.89603 17544 ft 300 kts 314°
2026-04-25 17:48 37.30152 126.85185 16428 ft 288 kts 274°
2026-04-25 17:48 37.30031 126.82708 15882 ft 283 kts 252°
2026-04-25 17:48 37.29221 126.80513 15382 ft 278 kts 232°
2026-04-25 17:49 37.27857 126.78832 14879 ft 274 kts 212°
2026-04-25 17:49 37.26129 126.77875 14384 ft 272 kts 192°
2026-04-25 17:49 37.24259 126.77734 13902 ft 270 kts 173°
2026-04-25 17:49 37.22466 126.78405 13366 ft 270 kts 153°
2026-04-25 17:50 37.20967 126.79810 12857 ft 273 kts 134°
2026-04-25 17:50 37.20120 126.80975 12647 ft 272 kts 134°
2026-04-25 17:50 37.18840 126.82718 12350 ft 271 kts 135°
2026-04-25 17:50 37.17401 126.84217 12046 ft 268 kts 147°
2026-04-25 17:51 37.15867 126.85543 11740 ft 267 kts 146°
2026-04-25 17:51 37.14230 126.86614 11262 ft 270 kts 168°
2026-04-25 17:51 37.12341 126.86452 10593 ft 281 kts 202°
2026-04-25 17:51 37.10785 126.84976 10113 ft 286 kts 227°
2026-04-25 17:52 37.09564 126.82993 9607 ft 287 kts 238°
2026-04-25 17:52 37.09081 126.81483 9310 ft 281 kts 260°
2026-04-25 17:52 37.09607 126.78426 8793 ft 270 kts 307°
2026-04-25 17:52 37.10994 126.76926 8445 ft 259 kts 324°
2026-04-25 17:53 37.12471 126.75670 8086 ft 257 kts 325°
2026-04-25 17:53 37.13953 126.74416 7721 ft 257 kts 324°
2026-04-25 17:53 37.15422 126.73143 7352 ft 256 kts 320°
2026-04-25 17:53 37.16613 126.71516 7044 ft 251 kts 300°
2026-04-25 17:54 37.17483 126.69688 6997 ft 238 kts 299°
2026-04-25 17:54 37.18335 126.67898 6681 ft 244 kts 300°
2026-04-25 17:54 37.19448 126.66231 6060 ft 257 kts 318°
2026-04-25 17:54 37.20880 126.64897 5603 ft 252 kts 324°
2026-04-25 17:55 37.22301 126.63683 5269 ft 243 kts 323°
2026-04-25 17:55 37.23681 126.62477 4943 ft 241 kts 323°
2026-04-25 17:55 37.25049 126.61268 4623 ft 239 kts 323°
2026-04-25 17:55 37.26406 126.60068 4312 ft 238 kts 323°
2026-04-25 17:56 37.27739 126.58891 3982 ft 236 kts 323°
2026-04-25 17:56 37.29055 126.57728 3681 ft 226 kts 323°
2026-04-25 17:56 37.30317 126.56612 3393 ft 218 kts 323°
2026-04-25 17:56 37.31533 126.55536 3117 ft 210 kts 323°
2026-04-25 17:57 37.32710 126.54494 2830 ft 203 kts 323°
2026-04-25 17:57 37.33847 126.53486 2589 ft 195 kts 323°
2026-04-25 17:57 37.34917 126.52539 2320 ft 181 kts 323°
2026-04-25 17:57 37.35579 126.51953 2162 ft 171 kts 323°
2026-04-25 17:58 37.36816 126.50856 1867 ft 155 kts 323°
2026-04-25 17:58 37.37674 126.50094 1659 ft 148 kts 323°
2026-04-25 17:58 37.38509 126.49353 1465 ft 146 kts 323°
2026-04-25 17:58 37.39338 126.48617 1279 ft 145 kts 323°
2026-04-25 17:59 37.40166 126.47883 1081 ft 145 kts 323°
2026-04-25 17:59 37.40992 126.47149 879 ft 146 kts 324°
2026-04-25 17:59 37.41810 126.46423 682 ft 145 kts 324°
2026-04-25 17:59 37.42631 126.45693 487 ft 144 kts 325°
2026-04-25 18:00 37.43447 126.44968 297 ft 143 kts 325°
2026-04-25 18:00 37.44258 126.44250 104 ft 142 kts 324°
2026-04-25 18:00 37.45043 126.43552 33 ft 126 kts 323°
2026-04-25 18:00 37.45619 126.43039 32 ft 77 kts 325°
2026-04-25 18:01 37.45908 126.42790 32 ft 32 kts 333°
2026-04-25 18:01 37.46070 126.42727 32 ft 14 kts 352°
2026-04-25 18:01 37.46130 126.42719 33 ft 5 kts 355°
2026-04-25 18:01 37.46146 126.42719 31 ft 1 kts
2026-04-25 18:02 37.46148 126.42719 31 ft 0 kts
2026-04-25 18:02 37.46161 126.42732 31 ft 6 kts 50°
2026-04-25 18:02 37.46165 126.42807 33 ft 12 kts 111°
2026-04-25 18:03 37.46104 126.42871 33 ft 10 kts 146°
2026-04-25 18:03 37.46048 126.42919 33 ft 9 kts 142°
2026-04-25 18:03 37.46001 126.42965 33 ft 8 kts 142°
2026-04-25 18:03 37.45959 126.43001 33 ft 7 kts 146°
2026-04-25 18:04 37.45911 126.43042 31 ft 11 kts 145°
2026-04-25 18:04 37.45845 126.43100 33 ft 12 kts 144°
2026-04-25 18:04 37.45769 126.43171 33 ft 15 kts 144°
2026-04-25 18:04 37.45674 126.43256 33 ft 19 kts 144°
2026-04-25 18:05 37.45557 126.43360 33 ft 22 kts 145°
2026-04-25 18:05 37.45445 126.43461 32 ft 19 kts 144°
2026-04-25 18:05 37.45349 126.43543 33 ft 16 kts 145°
2026-04-25 18:05 37.45258 126.43625 33 ft 16 kts 144°
2026-04-25 18:06 37.45165 126.43708 33 ft 17 kts 144°
2026-04-25 18:06 37.45062 126.43800 31 ft 19 kts 145°
2026-04-25 18:06 37.44987 126.43877 31 ft 11 kts 119°
2026-04-25 18:06 37.45009 126.43963 33 ft 12 kts 54°
2026-04-25 18:07 37.45060 126.44054 33 ft 11 kts 54°
2026-04-25 18:07 37.45088 126.44101 33 ft 7 kts 56°
2026-04-25 18:07 37.45132 126.44132 31 ft 8 kts 354°
2026-04-25 18:07 37.45194 126.44129 33 ft 10 kts 32°
2026-04-25 18:08 37.45244 126.44207 33 ft 13 kts 54°
2026-04-25 18:08 37.45300 126.44306 33 ft 15 kts 53°
2026-04-25 18:08 37.45364 126.44419 33 ft 17 kts 55°
2026-04-25 18:08 37.45435 126.44546 33 ft 16 kts 54°
2026-04-25 18:09 37.45503 126.44667 33 ft 18 kts 55°
2026-04-25 18:09 37.45573 126.44789 33 ft 8 kts 53°
2026-04-25 18:09 37.45603 126.44818 33 ft 5 kts 356°
2026-04-25 18:09 37.45618 126.44796 33 ft 5 kts 309°
2026-04-25 18:10 37.45649 126.44766 31 ft 2 kts 324°
2026-04-25 18:10 37.45654 126.44761 32 ft 1 kts 324°
2026-04-25 18:10 37.45661 126.44755 33 ft 1 kts 325°